N3EYQ Weather Reports


Display with metric or nautical units.
time (UTC)temp
F
wind
direction
speed
MPH
gust
MPH
rain 1hr
in
rain 24hr
in
rain mn
in
humidity
%
barometer
mb
20260507164138 63 0 0.0 0.0 0.00 0.00 0.00 38 1010.0
20260507163136 62 0 0.0 0.0 0.00 0.00 0.00 34 1010.0
20260507162137 62 0 0.0 0.0 0.00 0.00 0.00 37 1010.3
20260507161136 62 0 0.0 0.0 0.00 0.00 0.00 38 1010.6
20260507160136 62 0 0.0 0.0 0.00 0.00 0.00 37 1010.6
20260507155136 62 0 0.0 0.0 0.00 0.00 0.00 38 1011.0
20260507154136 61 0 0.0 0.0 0.00 0.00 0.00 41 1011.0
20260507153136 60 0 0.0 0.0 0.00 0.00 0.00 40 1011.3
20260507152136 59 0 0.0 0.0 0.00 0.00 0.00 39 1011.3
20260507151136 58 0 0.0 0.0 0.00 0.00 0.00 41 1011.6
20260507150135 59 0 0.0 0.0 0.00 0.00 0.00 42 1011.6
20260507145135 57 0 0.0 0.0 0.00 0.00 0.00 43 1011.6
20260507144135 57 0 0.0 0.0 0.00 0.00 0.00 38 1011.6
20260507143135 57 0 0.0 0.0 0.00 0.00 0.00 43 1011.6
20260507142135 57 0 0.0 0.0 0.00 0.00 0.00 40 1011.6
20260507141134 58 0 0.0 0.0 0.00 0.00 0.00 45 1011.6
20260507140135 57 0 0.0 0.0 0.00 0.00 0.00 48 1011.6
20260507135135 56 0 0.0 0.0 0.00 0.00 0.00 44 1011.6
20260507134134 55 0 0.0 0.0 0.00 0.00 0.00 43 1012.0
20260507133135 55 0 0.0 0.0 0.00 0.00 0.00 52 1012.0
20260507132134 54 0 0.0 0.0 0.00 0.00 0.00 45 1012.0
20260507131134 54 0 0.0 0.0 0.00 0.00 0.00 47 1011.6
20260507130131 54 0 0.0 0.0 0.00 0.00 0.00 49 1011.6
20260507125125 54 0 0.0 0.0 0.00 0.00 0.00 49 1011.6
20260507124126 54 0 0.0 0.0 0.00 0.00 0.00 57 1011.6
20260507123125 53 0 0.0 0.0 0.00 0.00 0.00 61 1011.6
20260507122125 52 0 0.0 0.0 0.00 0.00 0.00 56 1011.6
20260507121125 52 0 0.0 0.0 0.00 0.00 0.00 64 1011.6
20260507120124 52 0 0.0 0.0 0.00 0.00 0.00 67 1011.6
20260507115124 51 0 0.0 0.0 0.00 0.00 0.00 64 1011.6
20260507114125 51 0 0.0 0.0 0.00 0.00 0.00 71 1011.6
20260507113124 50 0 0.0 0.0 0.00 0.00 0.00 75 1011.6
20260507112125 50 0 0.0 0.0 0.00 0.00 0.00 81 1011.3
20260507111124 49 0 0.0 0.0 0.00 0.00 0.00 83 1011.3
20260507110124 48 0 0.0 0.0 0.00 0.00 0.00 87 1011.3
20260507105125 47 0 0.0 0.0 0.00 0.00 0.00 87 1011.0
20260507104123 46 0 0.0 0.0 0.00 0.00 0.00 88 1011.0
20260507103123 45 0 0.0 0.0 0.00 0.00 0.00 88 1010.6
20260507102123 45 0 0.0 0.0 0.00 0.00 0.00 88 1010.6
20260507101123 45 0 0.0 0.0 0.00 0.00 0.00 88 1010.3
20260507100123 45 0 0.0 0.0 0.00 0.00 0.00 88 1010.0
20260507095123 45 0 0.0 0.0 0.00 0.00 0.00 87 1010.0
20260507094123 45 0 0.0 0.0 0.00 0.00 0.00 87 1010.0
20260507093123 46 0 0.0 0.0 0.00 0.00 0.00 87 1010.0
20260507092122 46 0 0.0 0.0 0.00 0.00 0.00 87 1010.0
20260507091122 46 0 0.0 0.0 0.00 0.00 0.00 87 1009.6
20260507090123 46 0 0.0 0.0 0.00 0.00 0.00 87 1010.0
20260507085123 47 0 0.0 0.0 0.00 0.00 0.00 87 1010.0
20260507084122 47 0 0.0 0.0 0.00 0.00 0.00 87 1010.0
20260507083122 48 0 0.0 0.0 0.00 0.00 0.00 87 1010.3
20260507082121 48 0 0.0 0.0 0.00 0.00 0.00 87 1010.3
20260507081121 48 0 0.0 0.0 0.00 0.00 0.00 87 1010.0
20260507080121 49 0 0.0 0.0 0.00 0.00 0.00 87 1010.3
20260507075121 49 0 0.0 0.0 0.00 0.00 0.00 88 1010.3
20260507074121 50 0 0.0 0.0 0.00 0.00 0.00 88 1010.3
20260507073121 50 0 0.0 0.0 0.00 0.00 0.00 88 1010.3
20260507072121 50 0 0.0 0.0 0.00 0.00 0.00 88 1010.6
20260507071122 50 0 0.0 0.0 0.00 0.00 0.00 88 1010.3
20260507070122 50 0 0.0 0.0 0.00 0.00 0.00 88 1010.3
20260507065120 50 0 0.0 0.0 0.00 0.00 0.00 88 1010.0
20260507064120 50 0 0.0 0.0 0.00 0.00 0.00 88 1010.0
20260507063120 51 0 0.0 0.0 0.00 0.00 0.00 88 1010.0
20260507062121 51 0 0.0 0.0 0.00 0.00 0.00 88 1009.3
20260507061120 51 0 0.0 0.0 0.00 0.00 0.00 88 1009.3
20260507060120 51 0 0.0 0.0 0.00 0.00 0.00 88 1009.6
20260507055119 51 0 0.0 0.0 0.00 0.00 0.00 88 1009.3
20260507054120 51 0 0.0 0.0 0.00 0.00 0.00 88 1009.6
20260507053120 51 0 0.0 0.0 0.00 0.00 0.00 88 1009.3
20260507052119 51 0 0.0 0.0 0.00 0.00 0.00 89 1009.6
20260507051119 51 0 0.0 0.0 0.00 0.00 0.00 88 1010.0
20260507050119 51 0 0.0 0.0 0.00 0.00 0.00 88 1009.6
20260507045119 51 0 0.0 0.0 0.00 0.00 0.00 88 1010.0
20260507044120 52 0 0.0 0.0 0.00 0.00 0.00 88 1010.0
20260507043118 52 0 0.0 0.0 0.00 0.00 0.00 87 1010.0
20260507042118 52 0 0.0 0.0 0.00 0.00 0.00 87 1010.0
20260507041118 52 0 0.0 0.0 0.00 0.00 0.00 87 1010.0
20260507040118 52 0 0.0 0.0 0.00 0.00 0.00 88 1010.0
20260507035118 52 0 0.0 0.0 0.00 0.00 0.00 88 1009.6
20260507034118 52 0 0.0 0.0 0.00 0.00 0.00 87 1009.6
20260507033118 52 0 0.0 0.0 0.00 0.00 0.00 87 1009.6
20260507032117 52 0 0.0 0.0 0.00 0.00 0.00 86 1009.6
20260507031117 53 0 0.0 0.0 0.00 0.00 0.00 86 1009.6
20260507030117 53 0 0.0 0.0 0.00 0.00 0.00 86 1010.0
20260507025117 53 0 0.0 0.0 0.00 0.00 0.00 86 1009.6
20260507024117 53 0 0.0 0.0 0.00 0.00 0.00 86 1010.0
20260507023117 53 0 0.0 0.0 0.00 0.00 0.00 86 1010.0
20260507022117 53 0 0.0 0.0 0.00 0.00 0.00 86 1010.0
20260507021117 53 0 0.0 0.0 0.00 0.00 0.00 86 1010.0
20260507020116 54 0 0.0 0.0 0.00 0.00 0.00 86 1010.0
20260507015118 54 0 0.0 0.0 0.00 0.00 0.00 86 1009.6
20260507014116 54 0 0.0 0.0 0.00 0.00 0.00 86 1009.6
20260507013116 55 0 0.0 0.0 0.00 0.00 0.00 86 1009.3
20260507012116 55 0 0.0 0.0 0.00 0.00 0.00 86 1009.3
20260507011116 55 0 0.0 0.0 0.00 0.00 0.00 86 1009.3
20260507010115 56 0 0.0 0.0 0.00 0.00 0.00 86 1008.9
20260507005116 56 0 0.0 0.0 0.00 0.00 0.00 85 1008.6
20260507004115 57 0 0.0 0.0 0.00 0.00 0.00 86 1008.3
20260507003115 58 0 0.0 0.0 0.00 0.00 0.00 87 1008.3
20260507002115 59 0 0.0 0.0 0.00 0.00 0.00 86 1007.9
20260507001115 60 0 0.0 0.0 0.00 0.00 0.00 86 1007.6
20260507000115 60 0 0.0 0.0 0.00 0.00 0.00 86 1007.2
20260506235116 61 0 0.0 0.0 0.00 0.00 0.00 86 1007.2
20260506234115 62 0 0.0 0.0 0.00 0.00 0.00 87 1006.9
20260506233114 62 0 0.0 0.0 0.00 0.00 0.00 87 1006.6
20260506232115 62 0 0.0 0.0 0.00 0.00 0.00 86 1006.2
20260506231114 62 0 0.0 0.0 0.00 0.00 0.00 86 1006.2
20260506230114 62 0 0.0 0.0 0.00 0.00 0.00 86 1006.2
20260506225114 62 0 0.0 0.0 0.00 0.00 0.00 87 1005.9
20260506224114 62 0 0.0 0.0 0.00 0.00 0.00 86 1005.9
20260506223113 62 0 0.0 0.0 0.00 0.00 0.00 86 1005.9
20260506222113 62 0 0.0 0.0 0.00 0.00 0.00 86 1005.6
20260506221114 62 0 0.0 0.0 0.00 0.00 0.00 86 1005.6
20260506220114 62 0 0.0 0.0 0.00 0.00 0.00 86 1005.6
20260506215113 63 0 0.0 0.0 0.00 0.00 0.00 86 1005.6
20260506214113 62 0 0.0 0.0 0.00 0.00 0.00 87 1005.6
20260506213113 62 0 0.0 0.0 0.00 0.00 0.00 86 1005.6
20260506212113 62 0 0.0 0.0 0.00 0.00 0.00 86 1005.6
20260506211112 62 0 0.0 0.0 0.00 0.00 0.00 87 1005.6
20260506210112 62 0 0.0 0.0 0.00 0.00 0.00 87 1005.6
20260506205112 62 0 0.0 0.0 0.00 0.00 0.00 85 1005.2
20260506204113 62 0 0.0 0.0 0.00 0.00 0.00 85 1005.2
20260506203112 62 0 0.0 0.0 0.00 0.00 0.00 85 1005.6
20260506202112 62 0 0.0 0.0 0.00 0.00 0.00 85 1005.6
20260506201112 62 0 0.0 0.0 0.00 0.00 0.00 86 1005.6
20260506200112 62 0 0.0 0.0 0.00 0.00 0.00 85 1005.6
20260506195111 62 0 0.0 0.0 0.00 0.00 0.00 85 1005.6
20260506194111 62 0 0.0 0.0 0.00 0.00 0.00 86 1005.9
20260506193111 62 0 0.0 0.0 0.00 0.00 0.00 85 1005.9
20260506192111 63 0 0.0 0.0 0.00 0.00 0.00 86 1005.9
20260506191111 62 0 0.0 0.0 0.00 0.00 0.00 85 1005.9
20260506190111 62 0 0.0 0.0 0.00 0.00 0.00 85 1006.2
20260506185111 62 0 0.0 0.0 0.00 0.00 0.00 86 1006.2
20260506184110 62 0 0.0 0.0 0.00 0.00 0.00 85 1006.2
20260506183130 62 0 0.0 0.0 0.00 0.00 0.00 85 1006.6
20260506182132 62 0 0.0 0.0 0.00 0.00 0.00 85 1006.6
20260506181110 62 0 0.0 0.0 0.00 0.00 0.00 85 1006.6
20260506180111 63 0 0.0 0.0 0.00 0.00 0.00 84 1006.6
20260506175110 63 0 0.0 0.0 0.00 0.00 0.00 84 1006.6
20260506174109 63 0 0.0 0.0 0.00 0.00 0.00 84 1006.6
20260506173111 63 0 0.0 0.0 0.00 0.00 0.00 83 1006.6
20260506172111 63 0 0.0 0.0 0.00 0.00 0.00 83 1006.6
20260506171110 63 0 0.0 0.0 0.00 0.00 0.00 83 1006.6
20260506170109 63 0 0.0 0.0 0.00 0.00 0.00 83 1006.6
20260506165109 63 0 0.0 0.0 0.00 0.00 0.00 83 1006.9